Track COSMOS 2508 now! 10-day predictions COSMOS 2508 is classified as:
1 40922U 15050C 23091.61675402 .00000016 00000-0 41732-4 0 9992 2 40922 82.4834 88.6766 0017371 75.5802 284.7208 12.42877851341212